Theta_e
317 318 318 317 318 319 320 321 321 323 325 327 328 327 325 323 325 331 333 331 334 336 337 341 342 343 343 346 352 353 353 355 355 356 356 355 355 354 353 352 352 351 350 351 353 353 353 353 352 352 352 353 353 352 351 351 351 351 352 352 352 351 352 352 351 351 351 351 349 349 347 346 344 340 338 337 335 334 334 333 335 342 349 351 351 352
317 318 318 318 318 318 319 320 320 321 323 325 326 325 325 325 326 331 332 329 332 332 333 339 340 340 341 344 350 353 354 355 354 356 357 356 356 354 354 353 352 351 350 351 352 353 354 353 353 352 352 353 353 353 352 351 351 351 352 352 352 352 352 352 351 351 351 350 349 348 348 347 347 345 342 342 340 336 334 332 333 341 349 351 351 351
317 317 318 318 317 316 317 318 320 320 321 323 324 323 322 325 327 329 331 329 331 331 332 337 336 336 339 341 348 353 354 355 354 354 356 356 356 355 355 354 353 352 351 351 351 353 354 353 354 353 353 353 353 353 353 352 351 351 351 352 353 352 352 352 351 350 349 349 347 346 345 346 348 347 344 344 344 339 335 331 331 340 349 351 351 351
316 317 318 317 316 316 316 317 318 319 320 320 322 321 321 324 324 323 327 328 330 330 332 335 333 334 338 340 346 352 353 354 354 353 354 355 356 356 354 354 353 353 353 352 350 351 353 354 354 354 354 354 353 354 354 353 352 352 352 352 353 352 352 352 351 350 349 349 347 345 345 344 346 347 345 345 345 342 339 332 331 341 349 351 351 352
317 318 318 317 316 316 315 316 317 317 317 318 321 322 322 325 324 322 326 327 327 328 330 331 327 328 335 338 343 348 352 354 354 353 354 354 355 355 354 354 353 353 353 353 351 351 352 354 354 354 354 354 354 354 354 353 353 352 352 352 352 352 352 351 351 351 351 350 349 348 348 348 348 349 348 348 347 346 341 335 334 342 350 351 351 352
319 319 318 317 317 316 316 316 317 316 315 315 319 322 323 327 327 326 327 326 322 323 327 328 322 324 332 335 338 347 353 355 354 354 354 354 355 354 354 354 353 353 352 353 352 351 353 354 354 354 354 354 354 354 354 354 353 353 353 352 352 352 352 351 350 350 350 351 351 351 351 351 350 351 352 350 350 348 343 338 339 344 350 351 351 353
319 320 319 319 318 318 317 316 317 318 314 313 318 321 323 327 327 327 327 323 319 320 326 327 322 321 327 331 336 346 354 355 354 355 354 354 354 354 354 354 353 353 352 352 352 351 353 354 355 354 354 354 355 355 354 354 354 353 353 353 353 352 352 352 351 350 350 351 352 351 352 352 352 352 353 351 349 348 343 337 338 343 348 350 351 352
321 321 320 320 320 319 318 316 318 319 315 314 320 323 323 325 327 328 326 323 321 322 325 325 323 320 320 327 338 345 350 355 356 356 355 354 354 353 353 353 353 352 352 352 352 352 352 354 355 355 355 355 355 355 355 355 354 354 354 353 352 353 352 352 351 350 352 351 351 352 352 352 352 352 353 351 348 348 343 335 335 341 348 351 351 352
321 321 321 321 321 319 319 318 319 320 316 318 324 325 324 326 328 328 326 324 323 322 321 322 322 320 317 325 338 344 344 351 357 357 355 355 355 353 352 352 352 352 351 351 351 351 352 354 355 354 355 355 354 355 355 354 354 354 354 353 353 353 353 353 352 351 351 351 351 352 353 353 353 352 352 351 349 348 344 339 338 343 349 351 350 352
321 322 321 321 321 321 320 320 320 320 319 321 325 326 326 327 328 328 328 324 323 323 321 321 320 320 318 320 329 338 339 343 353 355 355 356 354 354 353 352 351 351 351 351 350 351 352 354 354 354 355 355 354 355 355 354 355 354 354 354 353 353 353 353 352 351 351 351 351 353 353 353 353 353 353 352 351 350 347 345 344 345 349 351 351 351
321 321 322 322 322 322 321 321 320 320 320 322 324 325 325 327 327 328 327 323 323 324 322 321 320 320 320 320 324 333 336 340 346 351 353 355 354 354 354 352 351 351 351 350 349 350 352 354 354 354 354 355 355 355 355 355 354 354 354 354 354 353 353 354 353 351 352 352 352 353 353 353 353 354 354 353 353 352 349 350 349 348 350 351 352 351
319 320 322 322 322 322 322 322 321 321 321 322 323 323 321 322 323 323 322 322 323 324 321 321 321 319 318 321 326 333 336 338 340 345 350 353 353 354 353 352 351 351 350 350 350 350 351 352 353 354 354 354 355 355 355 355 354 355 354 354 354 354 353 354 353 352 353 353 353 353 353 353 353 354 354 353 353 352 350 351 352 350 350 352 352 352
318 321 322 322 322 323 323 322 322 322 322 322 322 320 318 319 320 321 320 320 321 322 321 321 321 319 318 323 328 333 332 333 336 340 344 348 351 353 353 353 352 350 350 350 350 350 350 351 353 354 354 354 355 355 355 355 355 355 355 355 355 354 354 353 354 353 353 353 353 354 353 353 354 354 354 353 353 352 350 351 353 352 351 352 353 353
318 320 320 322 323 323 322 321 320 321 322 321 319 318 317 319 321 321 320 320 319 318 318 320 321 318 319 324 329 331 329 330 334 337 340 344 349 352 353 352 351 351 351 350 350 350 350 351 352 353 354 355 356 355 355 355 355 355 355 355 355 355 354 354 354 354 353 354 353 353 353 353 354 354 354 353 353 352 350 350 351 351 352 353 352 353
318 319 319 321 321 321 323 322 321 323 324 323 322 321 318 317 319 320 319 318 318 316 316 318 320 317 317 323 329 329 329 330 330 333 338 342 346 349 350 351 350 351 350 350 350 350 350 351 352 353 354 355 355 355 355 355 355 356 356 355 355 355 355 354 354 354 354 354 354 353 354 354 354 354 353 353 353 353 351 349 349 349 350 352 351 351
318 318 318 318 317 318 322 322 324 324 322 324 325 322 318 319 319 317 317 317 316 314 315 316 318 320 322 327 328 327 328 330 329 331 335 340 344 346 347 349 350 350 350 350 350 350 351 352 353 353 353 354 355 354 355 356 356 357 356 356 356 356 355 355 354 355 354 354 354 354 354 354 353 353 354 353 352 352 351 349 348 348 348 350 350 350
318 319 316 316 317 318 320 320 322 322 321 322 323 320 322 325 322 317 316 318 317 315 316 315 315 318 321 324 326 326 327 328 329 330 331 335 341 345 346 347 349 350 350 350 350 351 351 352 353 353 353 353 354 354 355 356 357 357 356 357 356 356 356 355 355 355 354 355 355 354 354 354 354 353 353 353 352 352 352 350 349 349 348 349 350 350
315 317 316 316 319 319 318 319 320 321 323 322 319 320 324 326 324 319 317 319 318 316 317 314 312 313 314 318 326 328 327 327 329 328 328 332 339 343 344 346 348 349 349 350 350 351 351 351 352 352 352 353 353 354 355 356 357 357 357 356 356 356 357 356 356 356 355 355 355 355 354 354 354 353 353 353 353 353 353 352 350 350 350 350 350 351
312 316 318 318 319 319 318 320 320 322 323 323 322 324 324 321 320 320 319 320 318 318 318 315 313 312 311 316 323 327 328 329 329 330 329 330 336 341 341 345 348 348 349 350 350 351 350 350 352 352 352 352 353 353 355 355 356 356 356 356 356 356 356 356 356 356 356 356 355 355 355 354 354 354 354 354 354 353 353 352 351 351 351 350 351 351
312 318 321 319 318 318 318 320 320 321 323 323 324 325 325 321 320 320 320 319 318 319 318 317 315 313 315 319 322 325 330 331 331 333 334 331 334 340 341 344 347 348 349 350 349 350 350 349 351 352 351 352 352 353 354 354 355 355 356 356 356 356 356 356 356 356 357 357 356 356 355 355 354 354 354 354 354 354 352 352 352 352 352 351 351 351
314 318 321 320 318 317 318 320 319 320 322 322 321 322 322 322 321 322 321 319 318 319 319 319 316 314 319 326 325 325 330 332 332 335 337 335 334 338 341 344 346 348 349 349 349 349 349 349 350 351 351 351 352 353 353 353 354 354 355 356 356 356 357 356 356 357 357 357 357 357 356 356 355 354 355 355 354 353 353 353 352 352 352 352 351 351
316 318 319 320 319 317 319 319 319 318 318 318 319 320 321 321 320 320 321 319 317 318 318 319 317 315 321 330 328 324 327 330 332 334 335 335 334 336 341 343 346 348 347 348 348 348 348 349 350 350 351 351 351 352 352 352 353 354 354 355 355 356 356 356 356 357 357 357 357 357 356 356 356 355 355 355 355 354 354 353 353 351 352 352 351 351
316 319 319 319 318 318 318 317 317 316 316 316 318 320 321 322 319 318 320 320 318 317 318 317 316 318 325 333 330 326 328 329 330 333 333 333 334 336 339 341 345 349 348 347 346 346 348 348 350 351 351 351 351 352 352 352 353 354 354 354 355 356 356 356 356 356 357 357 357 357 357 356 356 356 356 355 355 355 354 354 353 352 352 352 352 351
316 318 318 318 318 316 316 317 317 316 317 318 318 318 319 319 318 318 320 320 319 318 317 318 318 319 325 337 336 330 329 327 325 328 329 331 334 335 337 340 345 349 349 347 346 347 348 348 350 352 351 352 352 352 352 352 353 353 354 354 354 355 355 355 356 356 357 357 357 357 357 357 357 356 356 356 355 355 354 354 354 353 352 352 353 353
315 316 317 319 320 319 319 320 319 319 318 318 318 317 317 318 318 319 321 321 319 318 317 319 318 318 327 342 339 330 329 328 325 325 324 327 331 333 335 339 344 350 351 349 348 349 348 350 352 353 354 354 352 352 352 352 353 353 354 354 354 354 355 355 355 356 356 356 356 357 357 357 357 356 356 356 355 355 355 354 354 354 353 353 353 353
314 316 316 318 321 322 323 322 319 318 318 316 316 317 316 317 317 319 322 320 318 319 318 318 317 320 329 339 335 330 330 330 330 329 326 326 329 331 336 338 342 348 352 351 350 350 350 352 354 356 356 354 351 352 353 352 353 353 353 354 354 354 355 355 355 356 356 356 356 357 357 357 357 356 356 356 355 355 355 354 354 354 353 353 353 354
312 315 315 316 318 318 320 318 314 314 316 316 317 316 316 317 316 319 322 321 321 320 318 319 321 319 323 331 332 330 330 331 332 332 331 332 332 331 337 343 343 345 349 351 351 352 355 357 357 357 357 354 351 351 352 352 352 352 354 354 354 354 355 355 355 355 356 356 356 357 358 357 357 356 356 356 356 355 355 354 354 354 354 354 354 354
312 314 314 315 315 314 315 314 312 313 315 315 316 316 316 316 316 319 321 322 324 322 317 323 328 321 320 328 331 330 333 335 335 335 334 337 337 333 337 343 342 342 346 348 350 354 357 358 358 357 355 353 352 351 352 352 352 353 354 354 353 354 355 355 355 355 356 356 356 357 357 357 357 356 356 356 356 355 355 355 354 354 354 354 354 354
311 313 312 313 313 312 312 312 312 313 314 314 315 315 315 317 317 319 321 321 324 325 322 328 334 329 325 326 327 329 334 335 333 333 332 331 330 330 332 335 334 336 342 346 350 354 356 357 358 358 356 354 353 352 352 352 352 353 354 354 354 354 355 355 356 356 356 356 356 357 357 356 356 356 356 356 355 355 355 355 354 354 354 354 354 354
311 313 313 312 312 312 312 312 313 313 314 315 315 315 316 317 317 318 321 323 324 326 326 329 334 332 327 331 335 335 337 338 335 334 336 338 338 337 335 332 329 329 335 342 348 352 354 355 357 358 358 356 354 353 352 352 353 353 353 353 354 354 355 355 356 356 356 356 357 357 355 355 355 356 356 356 355 355 355 355 355 355 354 354 354 354
310 312 314 313 313 314 313 313 313 313 314 315 315 316 316 316 319 324 330 333 332 331 330 330 331 331 332 341 345 342 343 349 349 347 352 356 356 354 350 343 334 329 330 336 344 349 352 354 356 358 358 357 355 354 353 353 352 352 352 353 354 354 355 355 356 356 356 356 357 356 355 355 356 356 356 356 355 355 355 354 355 355 354 354 354 354
309 311 312 312 314 315 314 314 314 314 315 316 317 317 317 320 327 334 339 341 339 337 336 329 327 333 341 347 349 348 352 358 359 358 359 359 357 359 359 356 349 338 332 332 338 347 351 351 354 357 355 354 355 354 353 354 353 352 352 353 353 354 354 355 355 356 356 357 357 355 356 356 356 356 356 355 355 354 354 354 354 354 355 354 354 355
309 310 310 312 314 316 314 314 315 316 318 321 321 320 321 327 334 337 340 342 340 340 339 334 332 339 344 347 352 356 358 359 359 358 359 358 358 358 359 359 356 347 338 334 336 342 348 349 351 354 354 353 354 353 353 353 352 353 353 353 353 353 353 354 355 356 356 356 357 356 356 356 356 356 356 355 355 354 354 354 354 355 355 355 355 355
309 309 310 312 314 316 315 315 317 320 322 325 325 324 326 331 335 337 339 339 337 337 337 337 338 340 341 344 352 358 359 359 359 357 357 357 358 357 357 359 358 351 341 337 336 338 345 350 351 353 355 355 353 353 353 352 353 353 354 354 354 354 355 356 355 356 357 356 357 357 356 356 356 356 356 355 354 355 355 355 355 355 355 355 355 355
310 309 310 312 313 315 315 316 321 325 325 325 326 326 327 330 332 336 338 335 332 332 333 335 337 337 337 340 346 353 357 357 357 356 355 354 355 356 356 357 358 354 345 340 341 343 348 352 353 353 355 354 353 353 354 353 353 354 354 355 354 354 355 356 356 356 357 357 357 357 356 357 357 356 357 356 355 355 356 356 355 356 355 355 356 356
309 309 311 312 314 315 316 319 324 325 322 324 325 325 327 329 331 336 340 335 329 329 330 331 332 333 334 337 341 349 354 353 353 355 354 353 353 355 355 356 358 357 352 345 344 348 352 352 351 352 354 353 352 353 353 353 353 353 354 355 355 356 356 356 357 357 357 357 357 356 357 357 357 357 357 357 356 356 356 357 356 356 356 356 356 356
309 310 311 312 314 315 316 319 321 321 324 327 326 324 325 327 329 334 340 337 328 326 327 328 329 331 332 333 339 348 353 353 354 356 353 351 351 353 355 356 355 357 355 348 345 351 353 352 352 354 354 353 352 352 353 353 353 354 356 356 356 357 357 357 358 358 357 357 357 357 357 357 357 358 358 358 358 357 357 357 357 356 356 356 356 356
309 310 311 312 314 315 316 318 319 322 328 330 326 321 322 324 325 327 336 339 329 322 323 324 326 330 331 331 338 349 356 357 360 358 351 349 350 351 354 354 354 356 355 349 346 351 353 353 353 354 353 353 353 353 354 354 355 356 358 357 357 358 358 358 358 358 358 358 358 357 357 357 358 358 358 358 358 358 358 358 357 357 357 357 356 356
309 310 312 313 314 315 315 318 320 323 327 327 324 322 323 325 324 325 337 342 329 320 320 322 325 329 329 330 340 351 357 360 361 357 350 348 349 350 351 353 354 355 356 353 349 349 352 355 354 353 354 354 353 354 354 355 356 357 358 359 358 358 358 358 359 359 359 359 358 359 358 358 358 358 358 359 359 358 358 358 358 358 358 357 357 357
310 312 313 313 314 315 315 317 318 320 323 323 323 324 324 324 325 331 343 342 327 320 320 321 324 327 327 330 339 348 353 355 355 352 348 347 347 347 349 351 352 353 356 356 354 352 354 356 356 354 354 355 354 354 353 354 355 357 358 359 358 358 359 359 359 360 360 359 359 360 359 359 359 359 359 359 359 359 359 359 358 359 359 358 358 357
312 313 313 313 313 314 316 318 318 319 322 323 324 323 323 325 331 339 342 333 324 321 321 320 324 326 326 328 335 341 344 344 344 345 344 342 343 344 345 348 351 353 355 357 359 358 355 355 355 354 354 354 354 353 354 355 356 358 360 360 359 359 359 360 361 361 361 361 361 361 360 360 360 360 359 360 360 360 360 360 359 359 359 359 359 358
313 314 313 313 313 314 316 317 317 319 322 323 323 323 323 329 337 338 330 324 321 322 321 321 323 324 324 325 329 333 337 337 337 339 339 338 340 342 342 344 349 352 354 356 358 359 359 358 358 356 355 354 353 354 355 356 357 359 360 359 360 360 360 360 361 361 362 362 362 362 362 361 361 361 361 361 361 361 361 361 360 360 360 360 360 360
314 315 316 315 315 315 316 316 318 322 322 321 323 323 323 326 329 326 322 321 321 320 320 321 322 322 322 323 324 327 330 331 333 335 336 336 338 339 340 342 344 347 351 354 355 357 360 361 361 360 357 354 353 354 355 355 359 360 360 360 360 360 359 359 359 360 362 363 362 363 363 363 363 362 361 362 363 363 362 362 361 361 361 361 361 361
314 315 317 318 317 318 318 318 320 322 322 320 321 321 319 318 319 318 319 320 319 318 320 321 321 321 321 321 323 324 325 326 328 331 334 335 336 337 339 340 341 343 347 351 354 355 357 360 361 361 360 357 357 357 356 357 360 361 361 361 359 357 357 357 357 360 361 363 363 364 364 364 364 363 363 364 364 363 363 364 363 363 363 362 362 362
313 313 315 317 317 317 317 318 317 318 319 318 318 318 317 316 315 315 317 317 317 318 319 318 319 320 320 319 321 323 322 321 322 326 331 334 334 335 337 339 340 342 344 348 352 354 355 358 359 359 361 361 361 361 360 361 363 364 364 361 357 356 356 356 356 359 361 362 363 363 363 364 365 364 364 365 364 364 364 365 364 364 363 363 362 362
311 312 314 315 314 314 315 315 314 314 316 317 316 315 316 316 315 314 315 316 316 316 317 317 317 318 318 318 319 321 320 318 318 321 327 332 333 333 336 337 339 341 344 346 349 352 353 355 357 357 358 360 360 361 363 363 364 364 363 360 356 356 356 356 357 359 361 362 364 363 363 365 365 365 366 365 365 365 365 365 365 365 364 364 363 362
310 312 313 313 312 314 316 315 313 312 314 316 316 316 315 315 315 315 314 315 315 315 316 316 316 317 317 317 317 319 318 317 317 318 323 329 333 332 334 336 337 340 343 345 347 350 352 353 355 356 356 357 357 359 361 362 363 363 361 360 360 358 357 357 358 359 361 363 364 363 364 365 365 366 366 366 365 366 365 366 366 365 365 365 364 363
311 313 313 311 312 314 315 314 312 312 314 317 317 317 316 315 314 314 314 314 314 315 315 315 315 316 317 316 317 317 317 317 317 316 319 326 332 333 333 334 336 338 341 343 346 349 351 352 354 354 354 355 356 356 358 359 361 362 364 364 364 363 360 359 359 359 361 362 362 362 364 365 366 366 367 367 367 367 366 367 366 366 366 365 365 364
311 313 312 312 312 313 313 313 312 313 315 316 316 316 316 314 313 313 313 313 313 314 314 315 315 315 315 316 317 316 316 317 317 316 317 323 329 332 332 333 335 337 339 341 345 348 350 352 353 353 352 353 354 354 355 356 357 360 364 366 367 367 367 366 364 364 363 363 363 362 362 363 365 365 366 368 367 366 366 366 366 366 366 366 365 364
311 312 312 312 313 314 313 312 312 313 314 314 313 314 314 313 312 313 313 313 313 314 314 314 315 314 315 317 317 316 316 317 317 317 317 320 326 331 332 332 334 337 337 339 343 347 349 351 352 352 352 351 352 352 353 353 354 356 359 363 366 368 368 368 368 368 366 366 366 365 364 364 365 365 366 365 364 362 361 361 363 365 366 365 365 364
311 311 311 312 313 313 312 311 311 312 312 312 311 312 312 312 312 312 313 313 313 313 314 314 315 315 316 318 318 317 316 316 317 317 316 318 324 330 331 331 333 335 336 337 340 343 347 349 350 350 350 350 351 351 351 352 352 353 355 358 361 364 366 368 370 370 369 368 368 367 366 366 366 366 365 362 360 358 357 356 357 359 361 363 363 363
Wind_Speed
9 8 9 12 12 14 14 14 13 4 3 2 5 7 8 9 9 6 5 3 3 5 8 10 11 12 12 10 11 13 14 15 14 14 13 14 14 15 16 16 17 18 16 19 24 26 27 27 26 26 24 24 24 24 24 25 25 26 26 26 26 25 23 23 21 21 19 18 19 20 21 20 21 24 24 23 23 22 21 19 16 15 15 13 11 10
8 9 12 14 11 9 10 11 10 9 9 6 3 6 7 9 9 6 3 2 3 5 7 8 10 13 13 11 11 12 13 15 16 16 15 17 16 14 17 18 17 14 13 17 20 24 26 26 26 26 25 25 26 26 26 27 27 28 28 27 27 26 25 25 24 24 23 22 23 23 23 21 18 21 24 21 21 22 21 20 18 16 16 14 13 11
8 11 14 11 8 6 7 10 11 13 14 11 5 5 5 5 6 7 6 4 4 5 5 6 9 12 11 10 11 13 15 15 17 18 18 19 18 16 18 18 16 15 15 17 19 23 27 27 27 27 25 26 27 27 27 28 28 27 28 27 27 27 27 26 26 27 27 27 28 28 26 24 19 19 23 20 20 22 21 21 19 18 17 15 14 13
7 10 12 9 9 11 10 11 14 12 12 12 9 7 5 3 3 6 4 2 5 7 6 5 7 10 7 6 9 14 16 14 15 17 16 16 18 18 18 17 17 19 18 19 20 21 25 28 29 28 27 27 27 28 28 28 28 28 28 28 28 29 28 28 27 27 28 26 28 29 26 25 20 17 20 20 20 21 21 21 21 20 19 17 15 14
6 3 8 12 11 14 13 12 14 11 9 12 14 11 8 5 5 4 2 4 4 7 7 6 7 9 7 7 8 11 14 13 12 14 13 13 14 13 14 15 17 18 19 20 21 21 23 27 30 31 30 28 28 29 29 29 29 28 29 30 31 31 30 31 30 26 25 23 23 23 21 19 17 15 15 16 17 20 22 22 21 21 20 18 16 15
9 3 11 15 15 15 14 13 15 12 8 11 15 16 12 8 7 7 7 6 4 5 5 5 9 8 6 10 10 8 11 13 12 13 16 15 13 12 13 15 17 17 17 18 20 21 22 25 28 31 32 30 30 30 31 30 29 28 28 30 31 31 31 32 32 30 26 22 20 20 18 16 15 14 14 17 18 19 23 22 20 22 21 19 18 16
8 7 11 13 15 18 16 12 14 14 9 9 11 16 16 12 9 10 9 5 4 4 1 2 8 7 5 9 10 8 12 15 14 15 18 15 14 15 14 15 16 17 17 17 18 19 21 24 27 29 32 32 31 30 30 29 29 29 28 30 31 31 30 30 32 32 27 23 22 22 21 19 18 17 17 20 20 19 23 22 21 23 22 21 19 18
7 10 12 11 12 14 14 12 14 16 11 8 6 12 15 14 13 12 10 7 6 5 6 6 6 6 7 6 5 8 12 14 14 16 17 14 15 18 17 16 17 18 18 17 18 19 21 25 28 29 31 32 30 29 28 28 29 30 29 31 33 31 30 29 31 32 28 26 26 24 22 20 19 20 18 21 22 20 22 23 23 24 23 22 21 20
8 13 13 12 11 10 11 12 14 18 13 7 6 9 12 13 14 12 9 8 6 5 8 8 5 5 9 5 2 6 11 12 14 17 16 15 17 18 18 19 19 18 18 18 19 20 21 25 30 31 31 31 30 29 29 29 29 29 30 32 33 32 31 30 32 33 31 31 30 26 24 21 20 21 18 19 21 21 22 23 23 24 24 23 22 22
5 10 13 14 12 9 10 11 12 17 13 4 7 9 10 11 11 10 9 8 7 8 10 10 7 6 9 7 5 6 8 10 12 14 14 15 17 17 17 18 18 16 16 17 18 19 22 27 30 31 30 30 31 30 29 29 28 28 29 31 32 32 31 30 32 35 34 34 32 28 25 23 21 21 18 17 18 21 23 23 23 25 25 24 23 23
6 5 10 13 12 9 9 10 10 17 14 6 8 8 7 8 8 7 7 5 7 10 12 13 11 8 9 9 8 7 6 8 9 10 11 14 16 16 16 16 16 16 15 16 17 18 21 26 28 28 29 31 31 29 29 29 29 28 29 30 32 32 31 30 32 35 35 34 32 29 28 27 24 22 19 19 19 20 23 22 23 24 25 25 24 24
9 9 7 6 9 10 10 9 10 15 14 9 8 8 5 5 5 6 5 5 9 11 10 13 13 11 12 10 7 7 7 8 9 10 11 15 17 16 16 16 17 17 17 17 16 17 19 22 25 28 29 30 31 29 29 30 29 29 29 30 31 31 32 31 32 34 33 32 31 30 30 30 26 23 22 23 22 23 24 23 22 24 25 25 25 25
10 12 7 3 8 13 12 9 8 11 13 11 10 9 8 5 5 7 7 7 11 9 5 9 11 12 12 10 7 7 8 10 10 9 11 14 16 16 16 16 16 16 16 17 16 16 18 18 20 26 29 30 31 30 30 31 30 29 29 31 31 32 33 32 32 33 33 32 32 31 31 31 28 25 25 26 25 26 27 25 23 24 25 25 26 26
8 10 10 9 7 10 13 11 8 9 11 12 11 10 9 8 7 9 9 7 9 7 3 6 7 9 9 8 11 13 14 14 11 9 10 12 14 15 15 16 15 16 16 16 16 16 17 18 20 25 29 30 31 31 32 32 31 30 30 32 33 32 33 34 32 33 33 33 33 33 32 31 29 27 27 27 26 27 29 28 27 27 26 26 28 28
9 8 8 10 4 2 10 14 11 9 9 11 12 10 10 9 8 8 7 7 7 5 5 9 6 7 5 2 5 12 16 16 13 12 12 12 13 12 12 13 15 16 16 16 17 18 18 19 22 26 27 29 31 33 33 32 32 31 30 33 34 32 33 35 33 33 33 34 34 34 33 31 30 30 28 28 27 27 30 31 30 29 28 27 29 30
7 5 1 1 2 1 4 8 9 10 10 10 11 11 11 9 8 5 4 5 4 6 6 9 6 5 1 4 4 6 10 13 13 14 15 15 12 10 10 12 15 15 16 16 17 19 19 20 23 26 27 28 31 33 34 33 32 32 30 32 35 34 34 35 34 34 34 34 32 33 33 32 31 31 28 28 30 31 31 32 32 32 31 30 29 30
4 3 4 5 2 3 2 5 4 9 8 7 10 12 9 8 9 7 5 1 2 8 6 6 8 7 3 8 9 7 6 9 12 13 15 16 13 12 11 12 14 15 16 18 18 19 20 20 24 28 29 30 31 33 34 34 33 34 32 32 35 33 33 35 35 35 35 34 32 32 34 32 31 32 30 29 32 31 29 31 33 31 31 31 30 30
2 5 4 4 3 3 5 6 6 10 7 5 9 10 7 7 9 8 6 4 6 10 5 5 11 11 6 7 9 12 12 10 10 11 14 15 12 13 13 13 15 17 18 19 20 19 19 19 23 28 31 32 34 34 34 33 34 35 34 34 35 34 34 35 35 34 34 33 32 32 33 33 32 32 30 29 29 28 27 30 31 30 30 31 31 30
2 5 3 1 4 3 6 4 7 9 11 9 7 9 8 8 10 8 7 7 8 9 6 6 9 10 10 7 5 12 16 14 12 10 12 14 12 13 14 14 16 16 16 17 17 16 17 18 22 28 31 33 34 34 33 34 34 35 35 35 36 37 36 36 34 33 33 33 32 31 33 35 33 32 30 27 26 27 28 29 30 31 31 31 31 30
2 4 2 2 2 5 3 4 9 10 12 11 6 9 9 6 7 9 8 6 7 8 7 6 7 8 9 7 8 11 13 15 15 11 10 12 13 14 14 14 14 15 15 16 16 17 18 20 25 31 33 34 35 34 33 35 35 35 35 34 35 35 34 34 34 32 32 33 31 30 32 34 34 33 31 28 27 30 31 31 30 31 31 31 31 31
2 3 3 1 2 5 4 5 6 4 5 8 7 9 11 6 3 6 9 8 7 7 6 6 7 7 4 5 10 13 11 12 14 11 10 11 13 14 14 13 13 14 15 16 16 18 19 21 25 31 33 32 33 32 33 35 35 35 35 34 35 35 34 34 34 33 33 33 30 30 33 34 34 34 31 28 29 31 31 31 32 32 30 31 32 31
2 2 4 4 3 5 3 3 2 3 3 3 5 6 7 8 7 8 10 10 9 8 6 6 7 7 3 3 8 13 12 12 13 12 11 11 12 13 13 14 14 14 15 17 17 18 19 19 22 27 29 29 30 31 34 36 35 36 36 35 36 35 35 36 35 33 33 32 31 33 34 33 33 33 31 28 29 30 30 30 32 33 31 31 31 32
4 3 4 6 6 7 9 6 4 5 4 2 3 3 3 4 6 8 8 7 9 10 8 7 9 7 3 2 5 9 10 9 9 9 10 11 11 12 12 14 15 14 15 17 17 18 17 17 20 23 26 29 30 32 34 34 34 36 36 35 35 35 35 36 35 33 34 34 33 33 33 31 30 31 31 29 29 29 29 29 30 32 33 31 29 30
4 3 3 5 5 8 10 5 1 1 3 3 1 2 3 3 3 4 5 3 6 10 9 8 9 7 4 3 4 7 8 8 8 7 9 9 7 8 10 11 12 12 13 15 15 15 14 14 17 18 20 25 27 28 31 32 33 34 34 34 35 36 36 35 33 33 34 35 34 32 31 30 30 29 30 30 29 28 28 27 26 30 33 31 27 27
3 2 2 3 4 6 7 4 4 3 3 1 0 2 2 4 7 6 4 3 5 9 11 10 8 6 4 3 4 9 9 8 10 8 7 8 7 6 6 6 7 8 9 12 13 12 13 15 16 15 17 21 25 27 30 31 32 33 34 35 35 35 35 34 33 32 34 34 33 30 30 30 30 29 30 30 29 28 28 26 24 27 31 30 27 26
4 3 2 3 5 7 6 4 3 1 1 1 1 2 3 5 6 4 2 4 6 7 11 11 7 6 5 3 6 13 12 10 10 7 5 7 7 7 6 5 5 6 8 11 13 13 14 14 14 14 14 19 26 28 29 29 31 32 33 34 34 33 34 34 32 32 32 33 32 30 31 31 30 30 31 31 30 28 28 27 25 25 28 29 28 26
4 4 5 6 7 6 2 1 1 2 3 4 4 6 5 3 2 2 2 4 2 2 8 8 4 8 9 4 7 12 12 10 8 5 5 5 6 7 6 6 6 7 8 10 10 11 12 12 13 15 15 20 27 29 29 30 32 32 31 33 33 33 33 33 32 32 32 33 32 30 31 32 32 32 31 31 31 28 27 27 26 26 27 28 28 27
4 5 7 9 11 11 9 6 4 5 6 7 8 10 8 5 3 3 5 4 4 4 6 3 3 9 9 5 8 10 9 8 7 5 5 3 3 4 5 6 7 8 10 10 11 12 13 13 14 15 16 20 26 28 28 30 31 31 31 32 32 32 32 32 32 32 32 33 32 30 33 35 34 33 31 31 32 31 28 28 28 28 28 29 28 28
4 6 7 9 12 13 11 8 7 8 9 9 10 11 11 8 6 6 9 9 7 5 5 5 6 7 4 4 8 8 6 8 8 5 4 4 5 6 5 6 8 9 10 12 13 13 14 15 15 15 16 20 24 26 27 28 29 28 29 31 32 32 32 32 32 33 33 32 31 33 37 38 35 33 32 32 34 35 31 29 29 29 29 30 31 29
4 5 6 8 11 13 12 9 9 10 11 10 10 12 12 10 9 9 10 12 12 10 9 13 15 10 4 5 8 9 9 9 9 7 6 6 6 7 7 8 10 12 12 12 14 15 16 16 16 16 16 17 21 25 27 27 28 29 31 32 32 32 32 32 33 34 33 32 33 37 40 40 38 35 33 33 36 37 34 31 29 30 30 31 32 30
4 4 4 5 8 11 11 10 10 11 10 10 11 11 11 11 10 9 9 8 9 10 11 14 16 10 4 3 8 10 9 7 7 7 8 7 7 7 9 11 12 14 14 14 14 15 16 17 16 15 16 18 21 25 27 27 28 31 32 32 32 32 32 32 33 34 33 33 35 40 40 39 37 35 33 34 35 35 36 34 31 31 32 32 32 30
4 5 5 5 6 7 6 6 7 8 9 12 14 12 11 10 6 4 4 3 3 6 8 9 9 5 2 6 9 8 5 3 4 6 7 7 8 9 11 12 13 14 15 16 15 14 16 17 16 17 19 21 25 27 27 26 28 30 32 32 34 33 32 32 34 35 34 31 33 38 38 35 34 33 33 34 34 35 37 36 34 33 33 32 31 30
6 6 5 4 6 6 3 3 3 5 8 10 10 10 11 9 5 4 1 3 4 3 5 6 5 5 7 10 9 5 3 1 2 4 6 7 9 11 12 13 14 15 15 16 16 15 16 17 17 20 21 23 28 31 31 31 32 32 32 32 32 32 31 32 32 33 31 29 31 35 36 33 33 33 33 34 36 36 36 36 34 33 32 31 31 30
8 7 5 4 4 4 3 2 3 6 8 4 0 3 9 8 5 6 4 6 7 5 6 6 8 11 11 10 9 6 3 1 1 3 5 6 9 11 13 13 14 14 15 15 16 16 16 14 15 18 21 25 30 31 31 32 31 28 27 28 30 31 31 30 29 29 29 28 30 33 34 33 33 33 33 35 36 35 34 34 33 32 31 30 29 28
9 8 5 4 5 5 5 3 6 8 5 2 6 5 3 4 3 6 8 9 12 11 12 11 11 14 14 12 12 10 7 4 3 4 6 7 9 10 13 14 12 12 13 13 14 14 14 14 14 15 19 25 28 26 26 27 27 25 26 29 31 30 29 28 27 28 28 28 29 32 33 33 33 32 32 34 35 34 32 32 31 31 30 28 27 27
10 8 6 5 5 5 4 5 7 3 1 2 2 6 3 0 1 4 8 9 14 13 12 13 13 15 15 14 13 11 9 9 7 3 7 10 10 11 13 13 12 12 12 12 12 12 12 14 15 17 20 24 26 26 26 27 28 27 27 30 29 28 28 28 26 27 28 29 30 32 33 33 32 31 31 31 32 31 30 29 29 30 30 28 26 25
12 9 6 6 6 6 5 5 4 3 2 5 3 5 4 2 4 3 4 6 12 13 12 12 14 16 16 16 15 12 9 7 6 3 8 12 12 12 12 12 13 13 12 11 10 10 10 12 15 17 19 22 24 26 27 28 28 27 27 28 27 26 27 27 27 28 29 30 30 31 32 31 31 30 30 29 29 29 28 28 29 29 29 27 25 23
13 10 6 5 6 6 6 5 4 3 4 5 3 5 5 4 6 6 3 4 9 13 14 13 15 17 16 16 17 14 8 5 5 4 9 13 13 12 11 11 11 11 10 7 7 11 12 14 17 19 21 21 21 23 25 26 27 27 26 26 27 27 27 28 28 29 29 29 30 29 30 30 30 30 29 29 28 28 28 28 28 28 28 27 26 25
14 10 6 5 5 6 7 6 4 4 3 2 3 7 7 5 6 7 6 2 7 13 14 14 15 16 16 16 16 10 3 3 3 6 10 14 12 11 11 12 11 11 10 6 3 10 14 17 19 21 23 22 21 23 26 26 26 26 25 25 27 28 27 28 29 29 30 30 30 29 30 30 31 31 30 29 29 29 28 28 28 28 27 26 26 25
13 8 5 6 6 7 9 7 3 2 1 4 8 11 10 6 5 7 7 2 6 11 13 14 15 15 16 17 13 8 6 4 5 7 11 13 11 11 12 12 12 12 11 9 4 5 14 19 20 21 23 23 25 28 29 28 27 26 24 25 26 27 28 29 30 30 31 31 29 29 30 30 30 31 30 29 30 30 30 29 28 26 25 24 24 24
9 7 5 7 7 8 9 7 4 1 1 6 10 12 11 5 5 6 4 1 5 8 10 13 13 13 14 14 11 8 7 8 9 10 12 11 11 13 13 12 13 14 12 11 10 4 11 17 20 21 23 27 30 31 30 29 26 24 23 24 26 29 29 30 30 30 29 28 27 28 28 28 29 31 30 29 30 29 28 26 25 24 24 24 23 23
8 6 4 6 6 7 8 7 4 1 4 9 11 10 8 2 4 2 2 3 5 7 9 11 11 12 14 13 11 9 9 11 12 11 10 11 12 13 14 14 15 16 14 14 14 10 4 8 13 17 21 27 31 30 30 29 25 23 24 24 27 30 28 28 31 30 27 26 26 26 26 26 27 29 29 27 26 25 25 24 24 23 23 23 22 22
4 4 3 5 5 6 7 6 3 1 5 11 11 6 5 3 1 3 3 3 6 8 8 9 10 12 13 12 12 12 12 13 12 11 11 13 13 12 14 15 15 15 15 15 15 12 8 6 7 10 15 22 26 27 29 29 24 22 24 25 27 29 27 29 33 31 27 26 26 24 25 26 26 28 27 25 25 26 26 24 23 22 22 22 22 21
2 1 2 3 3 4 6 4 1 2 5 9 6 3 4 4 5 5 4 3 6 6 6 7 9 11 11 11 12 13 12 12 13 14 13 13 13 13 14 15 14 15 15 15 16 14 11 8 8 8 9 13 17 20 24 25 23 22 22 23 27 28 28 31 33 29 26 26 25 24 25 25 27 28 27 25 26 27 26 24 23 23 23 24 23 22
2 3 4 4 2 3 3 1 4 4 4 5 5 4 4 3 5 6 6 5 5 5 5 6 9 12 12 12 11 11 11 12 13 14 13 13 13 13 14 14 14 15 16 17 19 17 13 11 11 11 10 9 10 14 17 19 20 18 17 21 27 30 30 31 31 29 27 25 25 25 25 24 25 27 27 26 26 27 25 23 23 23 24 25 25 24
3 6 5 3 4 5 3 1 4 6 4 2 3 4 4 3 4 6 7 6 5 5 6 6 8 12 12 12 12 10 11 13 14 13 14 14 15 15 14 14 15 17 18 19 21 20 15 14 14 14 14 13 11 11 12 14 16 16 16 20 26 29 30 30 30 29 27 24 24 25 25 23 23 24 25 25 25 25 25 24 23 22 23 24 25 25
3 5 4 3 5 4 0 3 8 10 7 1 4 2 2 3 4 5 6 6 5 6 7 7 9 11 11 11 12 12 12 13 13 13 13 15 16 17 15 14 15 16 18 19 21 21 17 15 15 15 15 14 13 12 12 13 15 15 16 19 22 25 28 29 29 28 27 25 24 25 24 23 22 22 22 23 23 23 23 23 22 21 22 22 23 24
5 5 5 5 6 5 2 4 9 10 5 4 4 1 0 3 6 6 6 6 5 6 8 8 8 10 11 11 12 14 14 13 13 13 12 13 14 15 14 13 13 14 17 19 21 21 19 16 15 15 15 13 13 14 14 14 13 12 12 13 16 21 25 26 27 27 26 26 26 26 25 23 22 21 20 20 21 21 21 22 21 21 21 22 23 24
7 6 6 6 5 4 3 5 10 10 2 4 2 4 4 5 8 8 7 6 6 6 8 9 9 9 11 12 12 14 15 13 12 13 12 12 13 13 13 14 15 15 17 19 20 19 19 17 15 15 15 13 13 14 15 14 14 13 12 11 12 15 17 18 21 23 23 23 22 23 24 22 21 20 18 17 20 21 21 22 22 21 21 21 22 24
6 6 6 5 3 3 4 7 10 8 4 5 7 9 8 8 10 10 8 7 6 7 8 9 10 10 11 12 11 13 14 14 13 13 12 10 12 13 14 15 16 17 18 20 19 18 18 17 15 15 14 13 14 15 15 14 13 13 12 11 11 13 14 14 14 15 17 17 15 17 19 18 17 18 17 19 22 23 21 20 20 21 21 20 21 25
7 7 8 6 4 5 8 10 9 6 7 10 12 12 12 11 11 12 11 8 7 8 7 8 9 9 11 12 11 11 13 14 14 13 12 10 11 14 16 17 16 16 17 18 18 18 17 16 16 15 14 13 14 14 14 14 13 12 11 10 10 11 12 12 11 10 10 11 11 12 13 13 13 15 17 20 24 24 21 18 16 17 20 20 21 23
Wind_Direction
172 185 197 209 210 205 203 206 216 237 335 266 216 218 222 224 233 223 219 245 226 226 226 223 237 242 237 220 199 191 190 197 195 185 184 184 184 186 189 192 193 195 194 188 188 191 191 191 190 190 192 192 192 193 192 192 193 196 196 197 200 201 199 198 199 201 200 202 208 213 217 220 226 231 234 236 237 238 238 238 238 235 230 231 237 243
180 204 212 212 204 190 192 200 214 229 238 255 237 222 229 228 238 243 239 259 228 235 240 230 243 248 242 229 205 189 191 200 199 192 189 188 188 191 192 194 194 191 188 185 188 191 192 192 191 190 192 192 192 193 192 193 196 197 198 200 201 200 199 201 200 200 201 203 207 211 215 217 220 228 233 234 237 239 240 240 239 236 233 234 240 246
194 221 220 201 172 166 186 197 206 219 228 238 243 236 234 221 248 262 250 253 235 235 246 230 242 253 249 233 208 190 196 205 203 198 193 188 189 192 194 194 190 184 184 187 188 190 192 193 192 191 193 194 194 195 195 194 196 197 199 201 201 201 202 203 204 205 206 208 213 214 217 219 218 227 232 233 237 240 240 240 240 237 234 236 241 246
193 225 214 169 157 187 193 195 203 214 225 229 230 232 230 204 235 246 221 231 239 240 257 254 255 260 255 232 209 201 205 208 206 206 202 194 193 194 193 191 187 185 185 187 188 189 192 194 195 195 195 194 194 197 198 195 194 196 198 200 201 202 204 205 206 208 209 210 215 217 219 222 221 227 234 235 239 242 241 239 238 235 232 235 239 243
206 207 166 156 172 196 196 195 201 209 221 224 226 229 228 219 231 253 332 349 271 237 241 254 268 264 245 236 226 206 209 213 206 206 209 207 203 196 193 194 192 190 188 186 188 189 191 194 196 197 197 195 194 198 199 196 195 196 199 200 201 203 205 208 208 208 207 209 212 213 215 219 220 223 228 228 232 236 236 235 235 234 231 233 236 239
226 169 143 165 184 196 203 204 202 206 218 224 225 226 230 233 237 261 295 314 285 231 205 216 250 258 230 235 239 196 196 215 207 203 211 207 199 195 196 198 196 196 194 191 190 189 190 192 194 197 198 197 196 198 200 197 195 197 199 199 201 203 206 208 210 210 207 205 203 202 202 202 204 207 211 215 219 225 230 230 230 232 230 230 233 235
224 179 158 180 188 191 203 214 207 202 217 233 219 213 222 235 239 249 265 273 260 255 268 219 245 257 225 227 233 192 192 211 206 208 215 206 196 200 202 199 197 197 195 194 194 192 190 190 192 195 196 196 196 196 197 195 195 197 197 198 200 202 205 206 209 209 205 202 201 201 201 200 200 202 208 218 221 224 230 229 228 231 231 230 231 233
197 185 175 190 196 193 203 214 203 194 213 239 196 185 207 224 231 238 250 252 259 290 294 258 241 263 253 230 214 194 202 211 206 213 216 204 201 205 204 203 200 198 194 192 193 193 192 191 192 194 195 196 196 195 194 193 195 196 195 199 200 202 204 204 206 206 202 201 202 202 203 204 206 208 212 220 223 226 232 233 231 233 234 232 230 232
181 200 188 187 203 206 208 214 196 189 213 234 161 167 196 214 225 232 243 250 261 286 269 244 212 251 256 229 148 192 211 214 209 216 215 205 206 207 205 205 201 198 196 194 194 193 193 194 194 195 195 196 195 194 194 193 194 194 195 200 201 202 203 203 205 205 204 205 204 202 202 204 210 212 214 217 221 225 230 232 232 234 236 235 233 233
202 209 191 191 212 216 211 216 191 188 210 206 150 171 192 206 218 223 234 247 252 253 252 239 211 235 260 237 194 192 212 215 212 218 215 208 211 209 206 207 202 198 197 196 196 194 195 196 196 195 194 194 194 195 194 192 192 193 194 198 200 202 203 203 204 205 206 206 205 204 203 204 208 209 208 209 213 221 225 228 230 232 236 236 236 235
265 232 194 200 216 209 203 212 194 195 203 164 155 180 183 196 209 214 224 237 246 246 243 236 219 222 259 249 213 201 214 213 204 211 212 210 215 212 209 208 201 197 197 196 196 196 196 197 196 195 194 194 194 194 192 191 192 193 193 195 198 201 202 202 203 204 205 205 205 205 205 206 208 205 203 203 206 214 220 223 225 230 234 235 237 236
245 237 207 203 210 194 194 207 199 201 201 179 186 192 174 182 191 205 204 196 235 247 232 226 219 218 242 245 211 200 212 215 210 207 205 207 213 213 208 205 201 199 195 191 194 195 193 194 194 194 194 194 193 193 191 191 192 192 192 193 195 198 200 200 202 203 203 204 205 206 207 208 208 204 203 204 206 211 216 219 221 227 231 234 235 235
229 228 207 215 207 189 193 202 193 199 202 198 200 194 192 195 181 202 205 197 229 246 220 206 208 219 242 251 237 227 226 226 222 214 210 208 210 211 208 204 203 200 195 190 191 192 191 192 191 191 192 191 190 191 191 191 192 191 191 191 193 196 199 199 200 201 201 203 205 206 206 208 207 205 206 208 209 212 216 217 218 224 228 230 232 232
226 218 201 212 213 193 198 202 195 194 196 202 201 194 199 198 194 209 209 210 229 239 201 169 193 232 252 252 233 232 239 239 229 220 221 216 210 209 206 202 200 197 195 192 190 191 193 193 190 190 191 188 188 191 191 191 192 190 189 191 193 196 198 199 199 200 201 203 205 206 206 207 206 206 209 211 212 214 217 218 220 224 226 227 230 232
224 220 202 204 209 208 208 212 211 191 187 203 201 202 209 202 210 216 206 217 234 248 197 165 181 229 225 211 209 219 235 238 227 219 221 222 216 209 203 198 198 198 195 193 191 194 196 192 189 190 191 189 189 191 191 191 190 188 188 190 192 194 195 198 199 199 201 203 205 206 206 207 207 208 210 212 214 215 218 220 222 225 227 229 232 235
238 245 28 241 295 336 221 231 220 196 197 204 195 205 217 207 210 219 224 228 238 266 227 186 212 246 238 315 283 227 235 233 226 219 215 222 215 199 197 197 198 200 196 193 193 195 195 191 188 189 190 191 191 191 192 191 188 187 187 189 192 194 194 196 198 200 202 203 204 205 206 207 208 209 209 212 216 218 221 222 223 226 230 231 234 237
254 247 21 346 261 145 34 331 256 219 210 182 192 211 205 192 207 221 233 211 214 249 233 187 231 250 273 279 254 223 231 230 227 223 219 224 208 186 196 200 199 200 197 195 196 196 192 187 188 190 192 192 191 192 192 189 187 187 187 189 192 194 194 196 198 200 202 202 202 204 206 207 208 209 210 213 217 218 219 223 224 226 229 232 235 237
301 282 328 315 205 135 355 318 260 249 235 183 200 200 166 181 214 226 232 209 209 238 226 185 229 235 227 244 223 210 222 226 220 218 222 223 201 191 203 203 200 199 196 198 197 193 189 186 188 191 193 194 193 192 191 187 185 187 189 190 191 193 194 196 198 199 201 201 201 202 205 206 207 209 210 212 215 214 214 219 222 223 227 231 234 236
327 285 289 234 232 310 336 275 233 236 230 229 214 175 166 201 208 203 226 227 221 237 234 201 225 236 225 221 210 208 218 227 222 214 224 220 198 200 209 204 201 198 196 198 196 191 188 188 190 191 194 195 193 191 190 188 187 189 190 190 192 195 195 196 197 198 200 201 200 202 204 207 208 209 209 209 209 211 214 217 219 221 225 230 232 234
323 269 231 128 286 304 316 221 220 212 213 228 219 183 195 220 207 199 212 225 224 235 239 214 216 238 233 225 236 225 216 224 223 212 220 218 201 203 209 204 199 196 196 199 197 193 190 191 192 192 194 194 191 189 188 188 190 192 192 190 192 194 194 195 195 196 199 200 200 200 203 205 208 209 208 207 208 213 216 218 219 221 224 227 231 233
314 255 248 317 304 261 214 184 205 204 200 214 214 206 205 201 197 208 213 219 225 231 234 223 226 242 228 201 232 237 224 221 223 216 215 214 206 204 207 203 194 192 198 199 196 196 193 193 195 194 193 192 190 188 186 188 191 192 192 191 191 192 192 193 194 195 198 199 198 200 202 204 207 208 208 207 211 215 217 218 220 222 223 226 230 232
334 271 274 293 280 240 204 119 74 359 339 255 239 229 215 208 202 210 218 215 219 234 232 229 245 250 225 178 220 230 226 218 218 219 219 217 212 208 207 202 195 192 197 198 197 196 194 192 194 192 189 188 188 187 187 189 190 190 192 191 190 191 192 193 194 194 196 197 198 201 203 204 205 207 207 206 210 214 215 217 221 223 223 225 229 232
315 285 274 272 265 266 274 294 311 280 266 259 262 296 307 262 218 214 225 212 210 225 228 237 255 254 227 216 231 234 237 237 229 222 224 224 216 212 210 205 198 196 198 199 198 197 195 191 188 185 182 182 186 187 187 189 189 190 191 190 190 191 193 194 194 193 194 196 198 201 202 201 202 204 205 205 209 212 213 215 219 222 225 225 227 231
297 260 257 264 263 271 271 278 31 205 183 164 191 3 357 318 303 273 266 263 223 216 211 228 246 246 228 214 244 255 258 270 275 260 244 244 237 226 221 208 199 198 196 198 199 196 192 183 176 177 178 180 183 185 186 189 189 189 189 188 190 191 192 192 192 191 193 196 199 200 199 199 200 200 202 205 208 211 212 212 214 219 224 224 222 227
310 246 244 260 227 218 221 187 140 131 111 103 21 16 355 342 340 306 260 275 254 219 212 226 238 243 232 180 226 254 256 259 264 260 249 253 260 259 253 231 209 201 193 194 194 186 181 177 175 179 181 180 182 185 185 186 187 186 188 189 190 190 189 189 190 190 192 195 197 198 198 199 199 199 202 205 208 210 210 209 209 214 221 221 219 223
298 265 258 257 223 201 192 192 197 168 38 345 281 290 314 348 347 320 249 234 237 214 216 230 239 244 236 175 214 241 250 256 255 244 225 233 242 249 259 253 225 209 201 196 188 181 181 182 181 183 183 182 186 187 184 183 185 186 187 188 189 188 187 188 189 189 190 193 195 196 197 198 198 200 202 204 206 208 207 207 208 211 217 219 218 220
284 266 258 261 261 261 273 348 312 312 306 297 301 298 301 330 330 306 244 230 252 248 230 224 229 248 244 206 206 228 240 254 259 246 221 216 218 223 231 232 217 206 205 200 189 183 184 185 183 183 184 184 187 188 185 184 186 186 185 185 187 188 186 186 186 186 187 191 193 194 195 196 198 200 202 203 205 205 205 207 208 210 215 218 218 219
278 264 259 259 262 271 286 297 291 284 280 282 291 292 292 297 277 241 235 261 327 299 245 199 196 243 244 218 219 229 234 244 254 252 244 243 235 231 236 240 229 213 202 194 188 186 187 189 188 185 184 185 186 186 184 184 187 186 183 183 185 186 185 184 183 184 186 189 191 193 195 197 199 200 201 202 205 206 205 205 208 210 214 217 218 220
273 264 265 264 266 271 277 279 271 268 269 269 271 275 279 278 259 243 250 261 269 260 271 304 280 259 272 274 261 267 277 278 280 286 311 318 302 293 289 274 259 242 218 197 189 190 193 192 190 186 183 183 183 181 180 182 183 181 179 180 183 185 184 181 181 184 186 188 190 195 199 200 200 201 201 202 207 209 206 205 208 210 213 217 220 220
270 265 270 270 272 274 271 263 259 262 265 264 260 260 266 268 261 256 258 257 249 243 257 278 281 284 301 307 305 310 312 310 307 316 333 322 306 304 289 272 261 251 239 215 195 194 197 194 190 184 179 179 181 179 179 180 179 178 180 181 183 185 184 181 181 184 187 189 193 199 202 202 202 202 202 204 208 210 209 208 209 211 214 218 221 221
258 267 308 307 281 270 265 255 247 250 259 267 267 261 257 258 258 256 260 263 256 246 244 256 270 277 274 316 322 308 303 315 314 316 327 324 321 314 290 275 261 249 244 233 212 199 197 196 188 178 176 181 182 180 180 179 178 180 183 183 183 184 183 182 183 185 188 191 196 200 202 202 202 203 203 206 209 210 212 212 212 214 217 219 221 221
254 270 310 317 285 270 259 241 237 246 262 266 263 254 242 239 238 237 258 291 286 266 255 248 255 272 335 336 316 289 277 307 319 323 326 318 314 305 287 278 268 254 246 239 227 211 200 195 183 176 181 185 183 182 181 177 174 179 184 184 184 183 183 184 186 188 190 192 194 197 199 199 200 202 203 206 208 210 213 214 214 217 218 218 220 220
254 268 284 275 274 272 233 216 259 265 261 258 249 228 212 207 195 180 188 6 3 306 272 256 273 323 336 327 314 284 245 269 314 324 316 309 307 299 286 280 273 263 252 241 233 220 206 196 185 182 184 184 183 185 184 178 177 181 183 180 178 179 182 185 187 188 190 191 191 194 196 196 197 200 202 205 208 210 212 213 213 215 216 216 219 219
245 250 255 251 265 268 253 266 267 244 238 242 19 184 189 178 158 153 132 40 27 11 334 315 321 331 328 319 311 294 274 304 349 330 323 319 314 305 297 293 286 275 263 248 235 221 204 191 186 183 181 181 183 183 180 178 179 179 176 171 171 176 179 180 182 184 186 189 190 193 194 195 196 199 201 204 207 207 208 210 211 213 214 216 217 217
238 236 236 236 244 267 292 266 225 224 219 121 58 55 155 160 108 136 125 60 34 18 357 342 333 330 325 316 307 293 278 280 297 331 342 331 323 316 306 302 302 292 273 250 229 215 195 181 180 179 178 180 181 176 172 174 175 172 170 170 173 178 179 177 179 183 185 188 190 192 194 195 197 198 200 203 205 205 207 209 210 211 213 214 215 217
230 229 229 231 238 259 274 221 208 231 360 175 67 37 50 19 355 165 146 69 36 20 1 343 333 330 324 315 307 294 280 270 264 307 355 344 334 327 313 306 311 306 284 251 222 204 189 181 181 179 176 176 176 174 171 173 175 173 171 172 174 177 179 178 180 183 186 189 191 193 194 195 196 198 199 200 202 204 205 206 209 211 212 213 215 218
218 222 221 224 229 240 247 227 226 317 308 202 176 35 21 316 320 270 177 81 39 19 0 343 336 335 330 321 313 304 290 269 250 282 357 350 337 329 322 316 316 314 297 262 220 185 170 169 168 166 165 167 171 173 171 172 172 168 167 171 173 172 174 179 183 186 189 192 193 194 194 194 195 197 198 198 200 202 204 206 209 211 211 212 214 216
207 212 204 210 225 239 251 246 228 235 213 169 120 15 341 294 298 291 231 103 39 11 359 349 340 337 333 326 318 308 287 257 256 323 353 344 336 336 336 332 330 329 319 283 210 169 157 158 156 154 157 162 166 167 163 164 165 162 162 168 171 172 175 181 187 189 191 193 193 193 193 194 195 197 197 198 200 202 204 206 209 211 211 211 214 217
198 204 194 204 231 242 242 237 215 202 182 100 8 338 330 302 276 261 222 156 22 4 358 350 341 339 338 328 322 321 298 254 301 357 341 327 333 349 350 348 351 351 347 334 210 169 157 150 148 150 154 157 161 163 161 161 162 163 165 169 171 175 181 187 189 190 191 192 193 193 193 194 196 197 198 199 201 203 205 207 210 211 210 212 214 217
189 190 191 206 229 244 239 238 242 210 152 8 337 327 330 316 258 226 205 184 10 2 356 346 339 342 340 331 335 9 34 353 337 337 320 319 343 3 359 360 7 6 5 5 3 155 149 143 143 151 157 160 163 165 166 165 164 167 170 170 173 180 187 190 190 190 191 192 193 193 194 195 196 198 200 201 203 205 206 208 209 209 209 210 213 217
184 181 192 208 226 244 236 236 261 233 41 353 330 327 336 318 222 203 190 105 10 1 351 341 337 340 339 336 348 15 12 349 331 313 312 334 1 4 358 7 19 22 22 21 21 66 148 152 153 158 163 165 164 165 166 166 167 169 167 168 177 188 191 189 188 188 188 189 191 193 194 196 198 200 202 204 205 206 207 207 208 207 208 210 213 215
179 175 189 208 224 241 233 238 261 224 40 355 327 327 352 335 200 154 79 63 33 10 345 335 338 342 340 341 348 348 339 338 330 317 329 356 4 1 360 8 22 29 30 30 30 35 95 146 153 157 162 164 166 167 168 167 167 167 167 174 187 192 189 188 188 187 186 187 190 193 194 196 199 200 203 205 205 204 205 207 208 208 208 209 211 213
169 163 177 195 215 234 223 222 240 210 24 358 337 343 23 14 351 38 41 61 49 22 344 333 344 347 340 337 340 338 332 330 331 339 356 1 357 1 4 7 17 25 27 32 34 33 44 78 114 139 156 165 168 168 170 170 168 169 174 184 191 189 187 189 191 190 189 190 192 193 194 196 198 200 202 203 202 203 205 206 205 205 206 207 208 211
63 81 213 197 204 226 210 188 50 2 7 5 7 60 64 27 8 13 11 32 46 26 347 336 343 344 339 332 332 334 331 330 340 353 1 359 356 360 4 6 11 16 19 28 34 37 47 66 80 99 130 154 162 165 169 170 170 173 179 187 189 187 187 190 190 189 188 189 191 192 195 197 199 201 203 203 202 204 206 204 203 204 207 209 210 214
33 321 270 225 242 289 261 305 25 15 7 20 46 83 83 43 10 9 12 22 33 18 354 340 335 337 337 332 330 334 334 340 351 354 354 357 357 357 1 4 6 9 12 19 24 30 47 70 80 85 90 104 133 153 164 168 169 170 174 181 185 187 188 188 188 188 188 189 192 194 196 199 200 201 203 203 203 204 205 204 203 206 209 213 214 218
304 311 297 266 301 310 282 305 17 6 354 38 81 78 74 53 6 359 1 5 11 1 352 345 335 331 332 335 338 336 334 344 355 354 354 2 4 1 1 2 4 9 13 16 16 16 29 55 69 76 76 74 91 126 146 158 162 163 167 175 182 186 188 187 187 189 189 189 192 195 196 199 201 202 204 204 204 205 206 206 204 204 208 212 214 217
298 320 338 336 323 321 28 59 14 347 326 149 124 98 67 38 357 345 340 342 350 347 341 342 335 328 329 337 341 335 332 345 358 356 356 6 9 5 2 0 2 6 9 14 16 14 17 33 48 60 66 63 65 85 109 131 145 152 162 170 178 184 187 187 188 190 192 194 195 196 197 199 201 203 204 205 205 206 207 207 205 203 204 206 210 217
313 321 345 346 329 315 313 5 356 335 307 157 143 200 283 359 339 324 312 314 331 341 336 334 333 331 331 335 340 337 333 344 1 2 357 3 7 5 0 358 360 2 3 7 14 18 22 27 31 43 53 53 54 67 85 100 112 126 144 157 170 179 182 184 188 191 195 197 197 199 200 201 202 202 201 201 203 206 207 208 207 208 208 206 207 213
317 326 342 335 320 306 304 348 351 341 316 162 204 283 299 324 320 308 300 307 321 333 330 327 331 331 326 327 339 343 335 338 357 4 1 3 5 2 360 357 358 2 5 5 9 19 27 27 26 35 43 43 48 58 68 77 86 99 115 130 152 164 168 176 184 189 194 197 198 201 204 204 204 204 201 198 199 202 206 208 208 211 214 213 211 211
337 347 346 336 327 336 342 344 343 336 301 271 288 295 300 308 307 301 299 301 308 316 319 318 321 323 318 320 337 347 338 334 345 356 2 5 2 2 2 358 355 0 5 6 8 17 26 27 26 30 34 35 43 52 57 62 71 84 95 108 131 144 146 151 160 171 182 187 190 196 200 200 201 202 202 200 199 200 202 205 208 210 213 215 216 217
354 348 347 349 337 326 330 330 328 314 287 283 289 293 295 297 295 292 291 286 286 294 296 297 306 313 310 313 330 346 341 333 335 347 359 1 1 6 7 0 358 2 5 7 9 13 19 24 25 26 25 23 31 41 44 48 56 66 78 90 111 131 138 140 140 144 158 169 175 182 184 186 192 196 198 200 199 196 194 195 200 207 211 214 218 220